Theta_e
313 314 314 314 313 312 310 308 309 312 313 311 309 307 307 308 306 305 306 310 311 314 312 312 313 317 315 315 317 313 314 316 321 323 323 325 325 324 324 323 323 321 321 320 325 325 322 323 320 323 323 325 324 324
309 311 313 314 313 313 311 309 308 311 312 312 311 308 307 307 308 305 307 310 309 311 314 310 312 313 313 313 316 313 317 316 320 323 322 323 324 323 323 321 321 321 321 323 323 322 322 321 321 321 322 324 323 323
307 307 309 312 314 313 313 310 308 310 313 313 311 310 307 307 307 306 309 309 309 313 316 313 316 312 313 313 314 318 314 313 317 316 321 321 324 322 322 322 322 321 320 323 323 323 322 322 321 321 320 321 322 323
305 305 306 309 312 313 313 312 309 308 312 313 312 311 309 307 307 307 311 310 309 311 316 314 311 311 309 311 311 313 312 313 315 317 321 322 322 320 322 321 322 321 321 323 323 323 323 323 323 323 322 322 322 322
304 304 304 306 309 312 313 313 311 308 311 313 313 311 310 308 307 307 311 309 309 312 315 314 309 310 311 311 311 312 314 317 319 321 322 323 320 320 319 319 323 321 323 323 325 324 325 324 323 322 322 324 323 322
301 301 303 306 307 309 311 312 311 309 310 313 313 312 310 308 307 307 315 311 309 307 313 316 309 311 311 313 312 311 313 315 318 321 321 320 317 321 323 324 322 321 319 320 323 322 322 322 321 321 323 325 325 325
301 301 303 305 306 307 309 311 312 309 309 312 313 312 310 308 307 307 311 311 309 307 313 315 314 312 311 313 313 314 312 316 318 320 321 321 321 320 322 324 322 323 323 322 322 322 324 326 327 324 325 325 325 325
300 301 303 304 304 306 308 310 311 309 310 312 313 313 309 307 309 313 312 312 310 310 311 315 315 315 313 320 321 313 318 316 318 320 319 321 321 321 325 324 323 323 323 323 323 323 324 325 326 327 326 327 327 327
300 300 301 302 303 306 308 310 311 309 311 312 313 309 309 311 314 313 311 311 311 311 314 314 316 323 312 316 315 316 317 321 317 321 321 321 323 328 324 324 324 323 324 325 324 324 324 327 327 327 327 327 327 327
300 300 300 301 303 307 309 310 310 310 312 312 308 310 317 309 312 311 310 314 314 312 311 314 310 317 314 318 319 319 318 324 326 324 321 325 326 322 320 321 324 324 323 324 326 327 327 326 326 327 327 327 326 326
301 301 300 302 304 308 310 310 310 311 311 309 309 312 307 308 310 311 315 317 315 318 314 314 313 317 313 320 322 318 323 322 326 325 329 328 330 326 325 325 325 324 323 324 323 325 325 325 325 325 327 326 325 324
301 301 301 302 307 309 310 310 310 312 309 307 306 305 307 310 311 314 316 315 318 321 317 319 319 315 317 315 321 322 325 324 325 321 327 329 325 326 324 322 322 322 323 324 325 326 325 325 325 326 325 325 324 323
302 301 301 303 308 310 310 309 311 311 311 306 309 313 312 311 312 315 318 318 319 319 319 320 321 320 317 317 322 325 326 324 321 327 329 328 326 325 325 323 322 321 323 325 325 324 324 324 323 323 324 323 322 322
301 301 301 305 309 310 310 310 311 311 306 309 315 311 316 317 316 316 317 317 317 317 318 318 318 320 318 321 323 325 322 324 326 327 326 321 324 325 323 322 323 324 325 324 324 323 323 323 322 322 322 321 321 321
300 301 302 307 309 310 310 311 311 308 306 311 315 316 318 316 314 315 314 315 316 314 315 316 316 317 319 320 322 322 324 325 326 327 322 320 326 323 322 324 324 325 324 324 322 322 322 321 321 321 320 319 320 319
301 303 306 308 309 310 310 310 309 306 306 310 312 317 316 316 317 315 315 316 314 315 313 315 318 319 320 321 322 323 324 323 324 322 319 321 322 322 323 321 323 325 323 321 320 321 320 321 320 319 318 318 317 318
303 307 307 308 309 310 309 308 305 305 309 312 314 313 314 315 316 316 315 314 313 316 318 316 319 320 316 320 323 323 324 321 320 319 318 322 321 322 322 321 325 323 322 321 321 320 319 318 317 317 318 317 317 318
306 307 307 308 309 308 307 306 307 309 312 312 314 315 312 313 315 315 314 313 315 316 316 318 315 317 319 319 319 319 319 318 317 317 318 320 318 322 324 326 323 320 321 321 319 318 317 316 317 316 316 317 317 321
306 306 307 308 308 307 306 306 307 311 312 312 312 312 311 312 312 312 314 313 313 313 316 317 319 320 319 318 318 319 318 317 318 318 318 320 322 322 323 323 321 320 319 319 318 317 316 315 315 316 316 317 320 319
302 305 307 308 307 306 307 307 306 309 312 312 309 311 312 313 313 313 313 313 313 315 317 318 318 318 318 319 318 317 317 317 318 321 323 322 320 324 323 321 320 319 318 318 317 316 315 314 315 315 314 313 315 315
306 308 308 306 307 307 308 309 309 309 310 311 311 311 314 312 313 314 314 313 314 316 317 317 317 317 316 315 314 314 315 316 319 323 321 321 323 323 321 320 319 319 319 318 315 314 314 313 315 315 314 312 311 311
306 306 307 307 306 306 307 307 309 309 310 312 311 311 314 314 315 315 313 315 316 316 316 317 318 317 318 320 317 316 315 318 319 319 321 322 324 322 320 317 317 319 318 316 315 313 313 312 313 314 313 312 311 309
306 306 306 305 308 307 308 307 311 312 314 314 313 315 316 315 315 312 317 316 317 316 316 316 318 316 317 316 316 319 319 321 323 324 322 320 319 317 315 314 314 316 316 315 315 315 314 313 313 314 313 312 311 310
305 306 306 308 308 309 309 310 310 311 313 315 315 315 315 316 315 316 318 318 318 316 318 316 314 317 318 320 322 321 320 322 324 322 318 319 315 315 313 313 312 312 311 312 312 313 314 313 312 312 313 313 311 310
308 308 306 306 308 310 312 312 313 313 314 314 314 315 315 316 319 320 321 320 321 322 319 318 318 320 322 323 319 317 320 324 323 321 318 316 314 313 312 312 312 312 312 312 311 311 311 311 310 309 309 309 309 309
307 307 307 309 309 311 312 314 314 314 313 314 315 316 316 318 320 320 321 325 322 322 321 320 321 321 321 319 318 320 323 322 321 320 318 314 312 313 313 314 313 312 312 312 312 312 312 311 311 311 311 310 310 310
311 310 308 307 309 310 312 312 313 315 315 315 316 318 319 320 319 321 323 321 322 321 320 320 319 320 320 318 316 316 322 322 322 321 318 313 312 312 313 314 314 313 312 312 312 312 312 312 312 312 312 311 311 311
309 309 310 310 309 310 313 314 315 316 316 317 317 319 319 319 322 321 323 319 317 318 319 319 318 319 319 318 317 322 322 322 320 321 321 318 315 314 313 314 314 312 313 314 314 313 313 312 312 312 312 312 312 311
308 308 309 311 310 310 311 313 315 316 317 316 318 318 318 317 317 318 319 318 319 319 320 320 320 318 316 313 313 323 321 320 322 323 321 318 319 320 319 319 317 317 317 316 315 314 315 314 314 314 314 313 313 313
307 307 310 311 313 314 313 313 314 314 312 313 315 316 316 316 315 313 314 315 318 320 320 321 320 318 317 318 321 323 321 320 319 320 323 320 319 318 316 317 316 315 314 315 315 315 314 313 314 315 314 313 314 314
308 308 310 312 313 313 313 313 313 313 313 314 314 315 316 317 315 313 313 314 314 315 315 315 316 316 317 316 322 323 324 321 321 320 320 320 319 317 316 315 314 316 317 316 316 315 314 314 314 313 313 312 312 312
309 309 310 312 314 313 312 314 314 315 315 315 316 315 314 314 316 316 313 313 313 313 313 314 315 315 314 314 319 320 318 319 322 322 322 319 318 316 315 314 316 317 316 315 314 314 314 313 313 312 312 311 310 310
310 311 311 312 313 314 314 314 315 316 315 315 316 315 316 317 319 318 315 314 313 314 314 313 313 313 313 312 312 315 318 318 321 321 321 320 320 319 317 315 315 316 317 314 315 315 314 312 311 310 310 310 310 309
Wind_Speed
18 17 16 16 16 16 16 16 16 17 18 18 18 19 20 22 24 17 4 14 5 1 2 4 2 3 3 1 1 2 2 1 1 2 1 2 2 1 2 1 2 3 4 2 2 4 5 4 12 7 11 12 11 14
18 18 16 16 15 15 15 15 14 15 16 16 16 17 18 20 22 19 4 14 8 3 3 3 6 5 1 1 2 1 2 1 1 2 1 1 2 1 1 2 2 3 3 5 4 5 10 14 13 14 13 15 18 16
17 18 17 16 15 14 14 14 13 13 14 15 15 15 16 17 20 20 7 14 4 2 3 3 2 1 2 10 11 2 2 2 3 1 2 1 2 2 2 3 3 3 3 5 5 5 11 14 16 17 16 16 18 15
18 17 17 18 15 14 13 13 13 13 13 14 14 15 15 15 17 16 5 11 4 1 2 1 2 3 5 7 8 9 5 5 5 1 1 1 3 4 2 3 5 6 3 5 8 14 15 12 14 16 18 20 18 19
18 18 18 17 15 13 12 12 12 12 12 13 14 14 14 14 15 12 3 7 9 3 3 4 11 1 4 1 7 9 8 3 2 2 3 3 1 3 2 2 5 5 4 5 10 16 15 17 19 21 17 20 22 20
16 17 15 14 14 13 13 12 12 12 12 13 13 13 13 14 15 3 2 2 7 8 2 3 4 3 4 3 6 7 7 3 2 3 3 3 1 3 3 5 7 8 7 12 11 13 18 23 24 23 22 21 23 21
15 14 13 14 12 13 12 12 11 11 12 13 13 13 13 13 16 3 1 1 4 8 1 4 4 1 3 2 2 2 5 2 3 2 3 3 3 4 4 11 13 9 10 12 14 15 16 19 16 21 19 24 30 26
13 12 13 13 12 12 11 11 11 10 11 13 14 15 15 11 3 2 3 1 1 2 1 2 3 2 4 0 2 1 3 2 2 1 1 2 2 2 4 5 8 10 13 15 14 14 18 20 20 20 23 20 20 18
15 14 14 15 14 11 11 10 10 9 10 12 15 14 3 1 0 2 2 2 1 1 1 1 2 1 4 2 0 2 0 2 1 2 2 2 2 4 4 4 8 14 12 19 18 16 19 17 20 21 20 19 17 18
15 15 14 14 12 10 9 10 8 8 9 12 6 2 1 2 1 1 2 1 1 1 1 2 0 2 2 2 1 1 1 1 2 1 2 3 3 3 7 10 10 13 16 16 18 18 18 17 19 18 20 15 16 15
15 15 14 13 11 9 8 8 7 5 5 2 2 1 2 2 1 0 1 1 1 2 3 2 4 3 1 2 1 1 0 0 2 2 2 3 2 3 6 10 12 13 14 16 15 15 15 16 16 19 15 17 14 16
16 15 13 12 9 7 7 6 5 2 1 2 3 3 2 0 0 2 1 1 3 1 3 2 2 4 1 2 2 2 1 1 3 1 2 2 3 6 9 14 15 15 15 17 19 15 16 17 21 16 14 14 20 21
16 13 12 10 7 6 6 6 5 4 3 2 1 1 0 1 0 4 4 3 2 3 3 3 1 2 2 3 2 2 3 3 0 3 3 0 5 9 11 12 15 19 19 18 17 19 22 20 25 21 13 18 23 21
12 12 11 8 6 7 7 7 6 3 1 2 2 3 4 3 4 4 2 0 1 2 2 3 3 2 1 3 1 3 1 2 3 3 2 7 9 11 12 13 13 17 17 14 14 19 20 17 17 21 18 20 20 18
10 10 9 9 7 7 8 7 6 4 2 2 2 3 5 3 3 2 2 3 2 2 2 2 2 2 2 2 1 1 2 3 3 2 5 8 10 11 13 14 15 15 12 11 16 15 16 19 17 17 20 22 20 20
5 6 10 7 6 9 10 9 5 3 1 2 3 3 3 2 2 2 2 2 1 3 1 2 1 2 2 1 3 4 2 3 0 3 6 8 9 11 12 11 11 13 14 14 19 19 19 19 17 18 23 20 20 19
6 3 2 8 7 11 13 5 3 2 2 3 3 3 4 4 4 3 2 2 2 3 2 2 3 2 2 2 3 3 3 4 5 7 7 8 8 12 10 10 13 17 16 18 20 20 21 23 22 18 12 20 20 18
3 5 4 10 12 13 4 2 1 2 4 4 4 3 3 4 3 3 3 3 2 2 1 1 0 4 4 3 3 3 4 5 6 7 8 7 6 13 12 11 16 15 18 19 19 20 20 19 13 10 18 19 17 13
7 8 7 9 13 4 4 3 4 2 5 3 4 4 3 3 6 11 6 7 5 3 3 2 4 4 6 4 5 5 5 4 6 7 6 10 8 12 14 13 13 14 16 17 19 15 17 18 16 17 18 17 12 16
11 12 13 15 15 4 3 2 4 2 3 1 3 3 3 4 3 4 6 4 4 3 5 5 7 6 3 3 4 5 7 5 4 5 7 8 13 12 9 10 10 11 12 16 17 20 19 18 19 19 20 19 16 16
5 10 16 22 6 4 2 2 3 3 2 3 2 2 3 2 4 4 4 6 5 4 5 7 8 7 9 10 7 9 11 6 3 2 4 8 14 8 9 9 10 10 11 12 12 16 19 18 20 19 19 21 21 19
7 13 7 5 2 3 2 5 2 1 2 2 3 3 4 3 3 3 3 5 4 6 7 8 8 8 7 7 9 8 7 2 3 6 7 10 3 4 7 10 10 9 11 12 12 11 15 19 22 22 22 22 23 27
12 7 4 3 2 2 2 4 3 3 3 2 2 3 3 3 2 3 3 3 4 4 6 8 8 7 8 7 6 4 3 4 5 5 5 3 3 6 6 8 10 12 11 13 13 13 15 19 22 21 22 24 24 25
6 4 3 4 4 4 3 3 3 2 2 2 3 3 3 3 3 2 3 2 1 1 2 4 6 3 3 3 3 4 3 4 9 10 6 6 7 7 8 11 12 12 12 14 16 17 19 21 22 23 23 25 24 25
3 4 4 3 3 4 4 3 4 3 3 3 2 4 3 3 3 3 2 1 1 1 1 3 5 4 4 3 3 5 5 6 13 5 5 7 9 8 9 11 12 12 12 16 17 18 20 21 23 23 23 24 24 24
2 5 5 7 4 4 5 3 5 7 3 4 5 3 2 3 3 3 1 1 1 1 3 5 5 5 4 3 3 5 7 12 15 6 9 11 11 10 8 6 7 7 8 9 13 15 16 17 18 18 19 20 20 21
4 4 3 2 2 2 3 4 1 1 3 4 3 3 3 3 2 0 1 2 2 3 5 5 4 5 6 5 5 8 14 15 10 7 6 11 10 7 5 6 6 6 6 5 7 8 10 10 11 11 12 13 13 14
2 3 6 6 4 3 3 3 4 5 4 3 3 3 2 0 2 1 2 2 5 4 4 5 4 2 6 6 6 13 15 16 15 9 10 8 8 7 5 4 3 6 5 4 2 3 4 4 4 5 5 6 6 7
3 2 3 5 4 4 5 4 3 3 3 2 1 1 2 1 1 1 1 3 4 4 4 4 4 3 3 3 8 12 18 18 14 8 11 7 6 7 7 5 3 4 5 7 9 10 7 3 2 1 3 3 3 2
4 5 4 5 4 5 4 6 5 5 2 2 2 2 2 2 4 5 7 6 7 7 6 5 4 6 5 6 7 9 15 7 11 8 7 8 8 5 4 2 0 2 3 2 1 2 3 5 5 3 3 4 3 3
3 5 2 3 3 6 11 9 12 9 6 6 5 5 6 3 4 7 11 13 13 9 7 8 8 7 8 10 12 12 8 13 15 13 8 7 6 5 5 2 1 2 1 3 5 5 7 6 5 5 6 8 8 7
5 6 4 4 4 5 3 5 4 5 4 4 4 4 2 3 4 2 7 12 10 10 14 14 10 9 10 11 13 19 13 10 14 14 12 9 6 6 3 4 4 5 3 5 5 5 4 4 4 3 5 7 8 9
5 5 5 4 3 3 4 4 4 3 3 3 2 2 2 2 4 2 3 6 8 6 7 10 12 10 9 12 14 17 15 14 13 14 11 6 6 9 9 8 5 6 6 7 5 4 3 4 5 7 6 5 6 7
Wind_Direction
308 308 314 318 323 328 333 337 343 349 353 356 360 4 7 10 13 15 10 13 7 296 267 212 205 160 142 184 181 113 200 148 92 106 215 152 231 103 269 336 335 312 315 292 252 252 266 15 341 339 322 304 305 304
307 306 305 309 313 320 325 329 335 342 347 350 353 358 1 4 6 11 351 349 349 228 325 240 243 235 216 155 148 145 43 157 110 103 152 148 195 205 349 273 186 259 262 298 262 279 301 304 285 287 292 288 294 292
304 308 306 302 303 308 316 322 327 332 339 344 347 350 354 358 1 3 349 353 353 328 244 271 159 100 142 222 230 213 190 130 159 358 120 90 240 190 238 231 265 248 204 247 284 252 273 295 296 287 288 280 283 271
295 299 305 300 298 298 305 313 319 322 330 337 340 344 346 349 355 360 18 4 22 1 318 80 353 321 259 281 206 204 118 113 96 183 158 186 245 207 228 302 262 293 187 250 254 279 295 284 295 298 295 291 281 274
293 296 299 296 300 294 297 305 310 313 319 327 333 338 339 338 346 353 35 36 36 4 312 302 313 16 326 196 187 185 184 162 174 177 196 223 176 190 196 252 250 198 226 259 288 301 296 290 293 296 290 293 291 284
303 300 302 301 305 306 301 301 302 304 309 318 325 330 331 329 338 346 207 216 35 20 313 307 337 280 326 359 175 182 193 176 207 206 204 213 227 234 253 265 265 253 249 262 276 286 291 290 293 294 292 292 295 288
308 306 298 298 298 301 301 298 295 297 303 312 318 322 322 319 318 251 330 331 318 346 318 298 322 4 323 332 97 126 166 177 227 203 215 248 203 197 262 268 285 296 287 284 282 288 287 291 296 296 297 296 296 284
308 303 295 293 295 293 294 296 292 294 301 310 312 315 313 313 322 96 21 318 64 92 22 303 285 291 5 91 161 11 149 177 172 264 195 230 151 220 255 257 282 293 296 294 288 289 276 292 298 297 299 297 298 288
315 298 291 292 296 289 285 288 286 292 303 309 311 311 310 43 46 18 75 54 82 245 249 215 280 92 354 48 11 133 315 227 104 240 218 209 166 226 238 272 282 306 300 296 301 301 294 303 304 302 302 298 303 303
313 312 296 291 286 280 275 281 283 291 303 310 318 315 164 16 84 2 340 222 153 37 74 250 171 264 311 1 84 276 12 29 257 111 157 229 249 276 260 244 262 295 298 301 310 308 315 300 304 301 299 302 301 302
308 307 297 289 281 282 266 266 273 300 318 347 22 4 325 317 240 321 271 250 145 234 189 237 223 294 153 283 341 0 82 21 267 118 265 195 258 244 263 271 281 291 306 310 297 292 298 297 297 297 303 301 309 311
304 302 283 286 279 263 259 243 242 249 305 337 304 313 340 215 69 264 248 215 225 266 184 211 206 217 224 233 243 170 225 205 252 70 254 228 237 249 290 307 309 313 313 314 317 309 303 301 302 304 303 306 315 307
299 292 274 278 275 257 232 217 216 235 286 303 209 144 296 141 201 222 200 193 230 196 201 200 237 216 171 217 223 206 222 229 321 232 240 123 287 305 315 317 311 313 316 319 316 313 313 307 314 312 306 306 315 311
292 273 267 267 252 238 211 197 207 213 207 247 204 321 204 188 231 207 227 177 354 248 253 257 252 225 162 194 178 244 109 246 251 256 315 306 301 301 318 315 313 317 323 320 314 318 314 312 313 311 310 310 308 312
275 258 263 256 222 204 187 190 191 182 177 233 194 231 226 257 266 268 269 277 244 275 269 205 211 239 164 216 225 194 219 248 248 238 273 302 303 311 315 318 322 324 322 318 317 315 313 314 312 315 317 313 314 313
257 269 250 231 200 185 179 169 155 181 242 232 224 250 219 267 245 212 212 283 344 309 211 226 189 201 204 216 200 221 242 245 211 263 288 308 302 310 312 311 313 319 323 321 315 319 315 317 320 317 312 315 315 312
222 235 225 180 178 174 160 143 142 188 235 236 234 231 258 281 264 271 253 254 324 313 340 267 212 230 125 222 227 203 232 287 289 289 300 296 303 308 310 306 320 331 328 324 326 332 329 326 324 320 321 321 322 318
220 181 154 174 169 147 142 129 164 215 242 230 237 214 199 234 232 243 220 219 300 316 264 281 189 207 222 214 232 249 252 275 283 278 289 306 302 319 318 318 332 328 330 336 337 331 331 333 334 333 329 327 327 338
209 203 219 199 181 158 148 183 198 248 239 257 258 251 243 244 233 251 262 251 230 237 267 222 239 217 231 224 253 277 280 272 296 308 313 311 320 320 324 338 338 346 348 342 339 345 339 338 338 346 349 351 4 5
254 244 223 203 182 170 166 182 190 244 255 248 243 243 238 247 263 230 235 205 183 190 204 221 230 231 218 241 229 261 281 295 298 321 341 337 336 338 351 352 351 345 346 355 355 4 360 358 359 11 15 16 16 16
201 222 179 173 175 209 224 171 211 227 266 259 277 245 258 234 240 231 232 181 193 217 230 227 236 237 237 255 261 272 279 257 252 106 352 315 332 346 358 5 3 7 12 6 354 358 7 6 2 15 28 33 28 27
149 137 125 148 140 170 234 216 248 265 240 271 269 239 265 261 244 211 146 193 218 224 219 226 229 233 244 255 261 247 259 203 150 196 279 295 326 356 9 5 1 22 27 20 6 1 8 8 18 29 36 37 39 40
143 132 124 142 139 152 248 173 233 212 246 236 242 255 234 241 226 152 237 221 247 225 228 225 231 228 242 258 244 217 196 164 166 109 139 98 55 42 30 31 36 39 41 34 31 29 31 30 30 35 41 45 45 45
129 141 138 168 184 185 171 196 222 245 249 239 232 251 243 234 160 228 254 232 230 258 222 207 193 187 160 186 197 168 120 104 101 100 118 125 98 68 63 64 61 57 51 55 53 53 52 51 51 51 51 54 52 55
143 165 156 162 191 195 192 197 207 210 238 222 255 251 240 206 237 214 239 224 228 260 149 159 165 177 155 150 101 97 97 132 122 113 154 138 124 111 93 79 68 59 67 69 62 61 60 60 59 59 58 60 62 61
163 185 196 186 162 208 195 225 201 198 183 229 240 249 223 224 223 231 209 230 240 248 178 178 162 151 118 100 120 118 121 127 130 140 170 169 156 138 128 113 98 75 67 72 76 74 71 68 66 65 63 59 60 65
204 185 193 232 234 199 240 238 247 163 209 222 245 232 227 217 203 246 271 216 228 218 188 191 193 134 118 111 101 119 133 124 118 211 203 182 170 158 145 131 127 134 125 100 86 82 81 78 75 69 67 63 59 60
245 187 190 178 200 216 273 290 173 205 221 235 289 233 259 185 93 217 220 196 178 151 162 172 183 111 102 112 120 140 153 149 136 203 185 181 190 209 218 241 236 212 209 209 196 140 120 106 89 73 60 64 69 62
222 195 212 197 195 202 221 227 205 234 241 232 261 21 351 256 320 300 201 177 159 162 151 178 181 153 120 131 156 172 167 160 143 167 178 182 196 221 234 251 256 229 235 249 253 243 230 211 250 339 327 317 347 13
226 192 203 210 217 219 216 211 229 252 307 292 301 293 273 259 258 263 225 210 208 224 221 229 213 180 163 157 157 173 180 177 172 188 190 198 201 171 204 228 100 42 47 32 114 126 179 224 268 319 29 33 28 37
144 183 237 236 261 243 233 234 247 263 266 266 261 255 264 293 293 258 233 233 233 225 217 229 225 213 193 180 171 183 199 197 197 192 193 211 204 207 214 253 110 59 63 82 119 112 108 96 96 81 51 50 55 64
179 192 208 227 239 244 216 206 211 217 237 214 228 203 225 225 239 241 231 225 215 220 229 228 229 222 207 195 196 198 212 192 174 180 185 185 189 200 201 172 150 158 129 133 136 132 123 106 109 91 72 61 56 52
208 210 228 266 253 241 198 198 210 230 208 222 220 211 219 246 261 299 292 243 228 242 245 236 227 224 217 218 219 210 198 198 185 166 158 144 194 206 196 189 194 172 180 178 178 158 151 142 116 94 83 75 67 58